Location: Asheville, NC
(35.6000°N, 82.5500°W)
Time: 20:18:11

RS-15 - Pass Details

Date: 17 March 2018
Orbit: 1888 x 2157 km, 64.8° (Epoch: 19 March)

Event Time Altitude Azimuth Distance (km) Brightness Sun altitude
Exits shadow 02:23:59 31° 324° (NW) 3,222 9.1 -54.2°
Drops below altitude 10° 02:33:39 10° 19° (NNE) 4,558 10.4 -53.4°
Sets 02:37:44 0° 30° (NNE) 5,524 11.0 -53.1°
